Location: Norton
(51.3000°N, 0.8167°E)
Time: 12:56:12
(UTC+00:00)

USA 234 - Pass Details

Date: 03 March 2021
Orbit: 1102 x 1105 km, 123.0° (Epoch: 16 April)

Event Time Altitude Azimuth Distance (km) Brightness Sun altitude
Exits shadow 21:27:19 71° 301° (WNW) 1,163 3.4 -34.2°
Drops below altitude 10° 21:33:20 10° 254° (WSW) 2,961 5.8 -34.9°
Sets 21:35:48 0° 253° (WSW) 3,918 6.5 -35.2°
